Regional Weather Roundup
Issued by NWS

Home | Current Version | Previous Version | Graphics & Text | Print | Product List | Glossary Off
Versions: 1 2 3 4 5 6 7 8 9 10 11 12 13 14 15 16 17 18 19 20 21 22 23 24 25 26 27 28 29 30 31 32 33 34 35 36 37 38 39 40 41 42 43 44 45 46 47 48 49 50

000
ASUS43 KDTX 192110
RWRMI
MICHIGAN HOURLY REGIONAL WEATHER ROUNDUP
NATIONAL WEATHER SERVICE DETROIT/PONTIAC MI
400 PM EST FRI DEC 19 2014

NOTE: "FAIR" INDICATES FEW OR NO CLOUDS BELOW 12,000 FEET WITH NO
SIGNIFICANT WEATHER AND/OR OBSTRUCTION TO VISIBILITY.

MIZ047>049-052>055-059>063-066>070-074>076-081>083-192200-
SOUTHEAST LOWER MICHIGAN

CITY           SKY/WX    TMP DP  RH WIND       PRES   REMARKS
ADRIAN         CLOUDY    30  22  72 CALM      30.26R
ALMA           CLEAR     30  20  66 CALM      30.26S
ANN ARBOR      CLOUDY    28  21  75 N3        30.26R
BAD AXE        MOCLDY    28  22  79 NW7       30.25S WCI  20
CARO           PTCLDY    30  20  66 NW5       30.25S WCI  25
DETROIT CITY   CLEAR     32  18  56 SW5       30.26R WCI  27
DETROIT        MOCLDY    27  19  72 W3        30.28R
FLINT          FAIR      32  20  61 W3        30.26R
GROSSE ILE     CLOUDY    28  21  74 NW3       30.26R
HILLSDALE      CLOUDY    30  24  78 CALM      30.23R
HOWELL         CLOUDY    27  21  76 SW6       30.25R WCI  21

CITY           SKY/WX    TMP DP  RH WIND       PRES   REMARKS
JACKSON        CLOUDY    28  21  75 W5        30.24R WCI  23
LAMBERTVILLE   CLOUDY    32  25  74 CALM      30.27R
LANSING        CLOUDY    28  20  71 NW3       30.26R
LAPEER         FAIR      30  20  67 CALM      30.24S
MASON          CLOUDY    26  20  76 CALM      30.25R
MONROE         CLOUDY    30  25  80 CALM      30.26R
MT. CLEMENS    PTCLDY    32  21  63 CALM      30.24R
PONTIAC        PTCLDY    30  18  60 CALM      30.23R
PORT HOPE        N/A     29  20  69 W3        30.24R
PORT HURON     CLOUDY    30  21  69 NW6       30.25R WCI  24
TRI CITIES     CLEAR     31  18  58 SW3       30.26S
TROY           CLEAR     34  19  53 CALM      30.26R
SAGINAW HB     CLEAR     32  19  59 CALM      30.26R
$$
MIZ043>046-050>051-056>058-064>065-071>073-077>080-192200-
SOUTHWEST LOWER MICHIGAN

CITY           SKY/WX    TMP DP  RH WIND       PRES   REMARKS
BATTLE CREEK   CLOUDY    31  21  66 VRB3      30.24S
BENTON HARBOR  CLOUDY    32  24  72 VRB3      30.25S
BIG RAPIDS     CLEAR     30  18  61 CALM      30.23R
COLDWATER      CLOUDY    30  25  81 MISG      30.24S
FREMONT        FAIR      31  14  49 CALM      30.25R
HOLLAND        CLEAR     34  21  59 CALM      30.26S
GRAND RAPIDS   PTCLDY    31  20  63 SE3       30.25R
IONIA          FAIR      31  21  64 S3        30.24S
KALAMAZOO      CLEAR     33  22  63 CALM      30.23F
LUDINGTON      PTCLDY    31  21  67 CALM      30.27R
MARSHALL       CLOUDY    29  21  72 CALM      30.24S
MOUNT PLEASANT CLEAR     31  16  54 CALM      30.24S
MUSKEGON       CLEAR     35  16  45 CALM      30.26R
SOUTH HAVEN    CLEAR     32  16  50 N5        30.25S WCI  28
$$
MIZ016>042-192200-
NORTHERN LOWER MICHIGAN

CITY           SKY/WX    TMP DP  RH WIND       PRES   REMARKS
ALPENA         CLEAR     28  18  66 N3        30.26R
BEAVER ISLAND  CLEAR     27  19  71 CALM      30.26F
BELLAIRE       CLOUDY    28  22  76 CALM      30.27S
CADILLAC       PTCLDY    27  20  75 CALM      30.21S
CHARLEVOIX     CLEAR     27  21  80 N3        30.29S
FRANKFORT      CLOUDY    31  23  71 CALM      30.26R
GAYLORD        CLEAR     26  16  65 W3        30.21R
GRAYLING       CLEAR     29  18  65 SW3       30.23S
HARBOR SPRINGS CLEAR     27  20  73 SW5       30.26R WCI  22
HOUGHTON LAKE  CLEAR     27  19  72 CALM      30.22S
MANISTEE       CLOUDY    30  19  64 N6        30.26F WCI  24
OSCODA         CLEAR     27  21  77 E6        30.25R WCI  20
PELLSTON       CLEAR     27  16  63 N3        30.26S
ROGERS CITY    CLEAR     26  21  83 CALM      30.27R
TRAVERSE CITY  MOCLDY    29  21  72 NW3       30.25S
$$
MIZ007>008-015-192200-
EASTERN UPPER MICHIGAN

CITY           SKY/WX    TMP DP  RH WIND       PRES   REMARKS
KINROSS        CLEAR     27  18  69 CALM      30.26R
MACKINAC ISLAN CLEAR     25  15  65 CALM      30.26R
NEWBERRY       CLEAR     26  20  80 NW5       30.24S WCI  20
S. S. MARIE    CLEAR     23  12  62 S3        30.28R
MUNISING         N/A     31  20  63 CALM      30.25S
$$
MIZ004>006-011>014-085-192200-
CENTRAL UPPER MICHIGAN

CITY           SKY/WX    TMP DP  RH WIND       PRES   REMARKS
MANISTIQUE     MOCLDY    28  23  80 MISG      30.26R
ESCANABA       CLOUDY    28  19  69 CALM      30.26S
MENOMINEE      MOCLDY    28  19  69 E6        30.26S WCI  22
SAWYER-GWINN   CLOUDY    28  21  74 E3        30.22S
$$
MIZ001>003-009>011-084-192200-
WESTERN UPPER MICHIGAN

CITY           SKY/WX    TMP DP  RH WIND       PRES   REMARKS
IRON MOUNTAIN  CLOUDY    26  19  74 CALM      30.22F
HOUGHTON       MOCLDY    26  18  71 S7        30.22R WCI  18
COPPER HARBOR    N/A     32  21  64 CALM      30.24R
IRONWOOD       CLOUDY    23  21  93 S8        30.18S WCI  14
$$

ABBREVIATIONS USED IN REMARKS
   TC - TEMPERATURE IN CELSIUS
  WCI - WIND CHILL INDEX
   HX - HEAT INDEX
  VSB - VISIBILITY




USA.gov is the U.S. government's official web portal to all federal, state and local government web resources and services.